Skip Page Navigation
NASA JPL Caltech
NASA Logo - Jet Propulsion Laboratory + View the NASA Portal
+ Center for Near-Earth Object Studies
JPL Home Earth Solar System Stars & Galaxies Technology
JPL Solar System Dynamics
BODIES ORBITS EPHEMERIDES TOOLS PHYSICAL DATA DISCOVERY FAQ SITE MAP
JPL Small-Body Database Browser
Search: [ help ]  
79963 (1999 CV119)
Classification: Main-belt Asteroid          SPK-ID: 2079963
Ephemeris | Orbit Diagram | Orbital Elements | Mission Design | Physical Parameters | Discovery Circumstances ]

[ show orbit diagram ]
Orbital Elements at Epoch 2459000.5 (2020-May-31.0) TDB
Reference: JPL 24 (heliocentric ecliptic J2000)
 Element Value Uncertainty (1-sigma)   Units 
e .1364362892338209 5.2464e-08  
a 2.649192858906811 1.7534e-08 au
q 2.287746815772829 1.4263e-07 au
i 13.87739652225701 6.1949e-06 deg
node 75.2476590826999 2.0004e-05 deg
peri 118.3597166274962 3.0932e-05 deg
M 296.0349445991254 2.5549e-05 deg
tp 2459280.339534707579
(2021-Mar-06.83953471)
0.00011319 TDB
period 1574.957324172831
4.31
1.5636e-05
4.281e-08
d
yr
n .2285776220565674 2.2693e-09 deg/d
Q 3.010638902040794 1.9926e-08 au
  Orbit Determination Parameters
   # obs. used (total)      590  
   data-arc span      9620 days (26.34 yr)  
   first obs. used      1993-12-16  
   last obs. used      2020-04-18  
   planetary ephem.      DE431  
   SB-pert. ephem.      SB431-N16  
   condition code      0  
   norm. resid. RMS      .57651  
   source      ORB  
   producer      Otto Matic  
   solution date      2020-May-20 14:44:49  

Additional Information
 Earth MOID = 1.31941 au 
 Jupiter MOID = 2.05663 au 
 T_jup = 3.337 
[ show covariance matrix ]

Ephemeris | Orbit Diagram | Orbital Elements | Mission Design | Physical Parameters | Discovery Circumstances ]

Physical Parameter Table
Parameter Symbol Value Units Sigma Reference Notes
absolute magnitude H 15.0   n/a MPO319999  

79963 (1999 CV119)          Discovered 1999-Feb-11 by LINEAR at Socorro
Reference: 20040504/Numbers.arcLast Updated: 2004-07-16
Ephemeris | Orbit Diagram | Orbital Elements | Mission Design | Physical Parameters | Discovery Circumstances ]
ABOUT SSD CREDITS/AWARDS PRIVACY/COPYRIGHT GLOSSARY LINKS
FirstGov 2020-Jul-03 13:50 UT
(server date/time)  
NASA Home Page
Site Manager:   Ryan S. Park
Webmaster  Alan B. Chamberlin